Location: Stanford
(52.2833°N, 2.4333°W)
Time: 02:17:36
(UTC+00:00)

Nadezhda 4 Rocket - Pass Details

Date: 22 January 2021
Orbit: 949 x 993 km, 82.9° (Epoch: 28 February)

Event Time Altitude Azimuth Distance (km) Brightness Sun altitude
Rises 17:58:41 0° 170° (S) 3,672 7.1 -11.9°
Reaches altitude 10° 18:01:15 10° 165° (SSE) 2,722 6.4 -12.3°
Maximum altitude 18:07:15 52° 92° (E) 1,197 4.1 -13.2°
Drops below altitude 10° 18:13:13 10° 18° (NNE) 2,710 6.0 -14.1°
Sets 18:15:46 0° 14° (NNE) 3,655 6.7 -14.5°
